Weather History for KIJX - September, 2013

Change the Weather History Date:

Thursday, September 19, 2013

  Actual Average (KSPI) Record (KSPI)
Temperature  
Mean Temperature 80 °F 66 °F  
Max Temperature 90 °F 78 °F 95 °F (1978)
Min Temperature 69 °F 53 °F 38 °F (1991)
Degree Days  
Heating Degree Days 0 3  
Month to date heating degree days 26  
Since 1 July heating degree days 31  
Cooling Degree Days 15 3  
Month to date cooling degree days 101  
Year to date cooling degree days 1071  
Growing Degree Days 30 (Base 50)    
Moisture  
Dew Point 68 °F    
Average Humidity 71    
Maximum Humidity 91    
Minimum Humidity 49    
Precipitation  
Precipitation 0.03 in 0.09 in 2.15 in (1880)
Month to date precipitation 1.85  
Year to date precipitation 27.50  
Snow  
Snow 0.00 in 0.00 in 0.00 in ()
Month to date snowfall 0.0  
Since 1 July snowfall 0.0  
Since 1 September snowfall 0.0  
Snow Depth -    
Sea Level Pressure  
Sea Level Pressure 29.93 in    
Wind  
Wind Speed 9 mph (South)    
Max Wind Speed 20 mph    
Max Gust Speed 31 mph    
Visibility 10 miles    
Events Rain    
T = Trace of Precipitation, MM = Missing Value Source: NWS Daily Summary

Daily Weather History Graph

Daily Weather History Graph

Search for Another Location

Airport or City:

Trip Planner

Search our weather history database for the weather conditions in past years. The results will help you decide how hot, cold, wet, or windy it might be!

Date:

Astronomy

Sep. 19, 2013 Rise Set
Actual Time 6:46 AM CDT 7:02 PM CDT
Civil Twilight 6:19 AM CDT 7:29 PM CDT
Nautical Twilight 5:47 AM CDT 8:01 PM CDT
Astronomical Twilight 5:15 AM CDT 8:33 PM CDT
Moon 7:01 PM CDT (9/19) 6:55 AM CDT (9/19)
Length of Visible Light 13h 10m
Length of Day
12h 16m
Full, 100% of the Moon is Illuminated
Sep 19
Full
Sep 26
Last Quarter
Oct 4
New
Oct 11
First Quarter
Oct 18
Full

Hourly Weather History & Observations

Time (CDT) Temp. Heat Index Dew Point Humidity Pressure Visibility Wind Dir Wind Speed Gust Speed Precip Events Conditions
12:15 AM 72.3 °F - 66.4 °F 82% 29.97 in 10.0 mi SSE 6.9 mph - N/A   Clear
12:35 AM 72.5 °F - 66.6 °F 82% 29.97 in 10.0 mi SSE 6.9 mph - N/A   Clear
12:55 AM 72.7 °F - 67.1 °F 83% 29.97 in 10.0 mi SSE 5.8 mph - N/A   Clear
1:15 AM 72.9 °F - 67.1 °F 82% 29.97 in 10.0 mi SSE 6.9 mph - N/A   Clear
1:35 AM 72.9 °F - 67.3 °F 83% 29.97 in 10.0 mi South 5.8 mph - N/A   Clear
1:55 AM 72.5 °F - 67.3 °F 84% 29.97 in 10.0 mi South 5.8 mph - N/A   Clear
2:15 AM 72.9 °F - 67.3 °F 83% 29.97 in 10.0 mi South 6.9 mph - N/A   Clear
2:35 AM 73.0 °F - 67.5 °F 83% 29.97 in 10.0 mi South 9.2 mph - N/A   Clear
2:55 AM 73.4 °F - 67.5 °F 82% 29.97 in 10.0 mi South 6.9 mph - N/A   Clear
3:15 AM 73.4 °F - 67.5 °F 82% 29.97 in 10.0 mi South 8.1 mph - N/A   Clear
3:35 AM 73.2 °F - 67.3 °F 82% 29.96 in 10.0 mi South 6.9 mph - N/A   Clear
3:55 AM 72.7 °F - 67.3 °F 83% 29.96 in 10.0 mi South 6.9 mph - N/A   Clear
4:15 AM 72.5 °F - 67.3 °F 84% 29.96 in 10.0 mi South 6.9 mph - N/A   Clear
4:35 AM 72.5 °F - 67.1 °F 83% 29.96 in 10.0 mi South 9.2 mph - N/A   Clear
4:55 AM 72.5 °F - 67.3 °F 84% 29.96 in 10.0 mi South 10.4 mph - N/A   Clear
5:15 AM 72.3 °F - 67.3 °F 84% 29.96 in 10.0 mi South 9.2 mph - N/A   Clear
5:35 AM 72.1 °F - 67.5 °F 85% 29.96 in 10.0 mi South 9.2 mph - N/A   Clear
5:55 AM 72.5 °F - 67.5 °F 84% 29.96 in 10.0 mi South 10.4 mph - N/A   Scattered Clouds
6:15 AM 72.5 °F - 67.5 °F 84% 29.96 in 10.0 mi South 9.2 mph - N/A   Clear
6:35 AM 72.5 °F - 68.0 °F 86% 29.97 in 7.0 mi South 9.2 mph - N/A   Clear
6:55 AM 72.0 °F - 68.0 °F 87% 29.97 in 7.0 mi South 9.2 mph - N/A   Clear
7:15 AM 71.8 °F - 68.0 °F 88% 29.97 in 7.0 mi South 10.4 mph - N/A   Clear
7:35 AM 72.0 °F - 68.0 °F 87% 29.97 in 7.0 mi South 9.2 mph - N/A   Clear
7:55 AM 73.0 °F - 68.4 °F 85% 29.97 in 7.0 mi South 10.4 mph - N/A   Clear
8:15 AM 73.6 °F - 68.4 °F 84% 29.97 in 7.0 mi South 10.4 mph - N/A   Clear
8:35 AM 75.0 °F - 68.9 °F 81% 29.97 in 7.0 mi SSW 10.4 mph 17.3 mph N/A   Clear
8:55 AM 76.3 °F - 68.7 °F 77% 29.97 in 10.0 mi SSW 12.7 mph 17.3 mph N/A   Clear
9:15 AM 77.2 °F - 68.7 °F 75% 29.98 in 10.0 mi SSW 10.4 mph - N/A   Clear
9:35 AM 77.7 °F - 69.1 °F 75% 29.98 in 7.0 mi SSW 11.5 mph - N/A   Clear
9:55 AM 78.4 °F - 69.3 °F 73% 29.98 in 10.0 mi SSW 12.7 mph 17.3 mph N/A   Clear
10:15 AM 79.0 °F - 69.1 °F 72% 29.97 in 10.0 mi SSW 13.8 mph 18.4 mph N/A   Clear
10:35 AM 81.1 °F 84.5 °F 69.6 °F 68% 29.97 in 10.0 mi SSW 15.0 mph 21.9 mph N/A   Clear
10:55 AM 82.2 °F 86.0 °F 70.0 °F 66% 29.97 in 10.0 mi SSW 10.4 mph 18.4 mph N/A   Clear
11:15 AM 83.8 °F 87.5 °F 69.3 °F 61% 29.97 in 10.0 mi SSW 16.1 mph 21.9 mph N/A   Clear
11:35 AM 85.3 °F 89.4 °F 69.4 °F 59% 29.96 in 10.0 mi SSW 13.8 mph 18.4 mph N/A   Clear
11:55 AM 86.0 °F 89.7 °F 68.9 °F 56% 29.96 in 10.0 mi SSW 15.0 mph 18.4 mph N/A   Clear
12:15 PM 86.9 °F 91.0 °F 68.7 °F 55% 29.95 in 10.0 mi SSW 13.8 mph 18.4 mph N/A   Clear
12:35 PM 87.4 °F 91.2 °F 68.4 °F 53% 29.95 in 10.0 mi SSW 16.1 mph 21.9 mph N/A   Clear
12:55 PM 88.2 °F 92.5 °F 69.1 °F 53% 29.95 in 10.0 mi SSW 15.0 mph 20.7 mph N/A   Clear
1:15 PM 88.3 °F 92.8 °F 69.3 °F 53% 29.95 in 10.0 mi SSW 12.7 mph 18.4 mph N/A   Clear
1:35 PM 87.8 °F 91.8 °F 68.7 °F 53% 29.94 in 10.0 mi SSW 11.5 mph 16.1 mph N/A   Clear
1:55 PM 88.2 °F 92.5 °F 69.3 °F 53% 29.94 in 10.0 mi SSW 11.5 mph - N/A   Clear
2:15 PM 87.6 °F 91.5 °F 68.7 °F 53% 29.93 in 10.0 mi SSW 11.5 mph - N/A   Clear
2:35 PM 88.7 °F 93.0 °F 69.1 °F 52% 29.92 in 10.0 mi SSW 11.5 mph - N/A   Clear
2:55 PM 89.6 °F 94.3 °F 69.1 °F 51% 29.92 in 10.0 mi SSW 13.8 mph 17.3 mph N/A   Clear
3:15 PM 89.6 °F 93.4 °F 68.2 °F 49% 29.90 in 10.0 mi South 12.7 mph - N/A   Clear
3:35 PM 89.6 °F 93.4 °F 68.2 °F 49% 29.90 in 10.0 mi South 13.8 mph 20.7 mph N/A   Clear
3:55 PM 89.2 °F 93.2 °F 68.4 °F 50% 29.89 in 10.0 mi SSW 17.3 mph - N/A   Clear
4:15 PM 86.9 °F 90.3 °F 68.0 °F 53% 29.88 in 10.0 mi SSW 13.8 mph - N/A   Clear
4:35 PM 86.0 °F 89.4 °F 68.4 °F 55% 29.87 in 10.0 mi SSW 10.4 mph - N/A   Clear
4:55 PM 86.9 °F 91.7 °F 69.8 °F 57% 29.86 in 10.0 mi South 10.4 mph - N/A   Clear
5:15 PM 85.1 °F 87.9 °F 67.1 °F 55% 29.84 in 10.0 mi South 10.4 mph 17.3 mph N/A   Clear
5:35 PM 82.9 °F 85.4 °F 66.6 °F 58% 29.84 in 10.0 mi South 10.4 mph - N/A   Clear
5:55 PM 83.8 °F 86.3 °F 66.7 °F 56% 29.84 in 10.0 mi South 12.7 mph - N/A   Clear
6:15 PM 83.3 °F 86.2 °F 67.8 °F 59% 29.85 in 10.0 mi South 10.4 mph - N/A   Clear
6:35 PM 81.7 °F 84.5 °F 68.0 °F 63% 29.86 in 10.0 mi South 9.2 mph - N/A   Clear
6:55 PM 80.6 °F 83.2 °F 68.0 °F 65% 29.86 in 10.0 mi South 5.8 mph - N/A   Clear
7:15 PM 79.2 °F - 68.0 °F 69% 29.87 in 10.0 mi SSE 5.8 mph - N/A   Clear
7:35 PM 79.2 °F - 68.2 °F 69% 29.87 in 10.0 mi SSE 5.8 mph - N/A   Clear
7:55 PM 79.0 °F - 68.4 °F 70% 29.87 in 10.0 mi SSE 6.9 mph - N/A   Clear
8:15 PM 79.7 °F - 68.7 °F 69% 29.87 in 10.0 mi SSE 6.9 mph - N/A   Clear
8:35 PM 79.3 °F - 68.9 °F 70% 29.87 in 10.0 mi SSE 6.9 mph - N/A   Clear
8:55 PM 79.2 °F - 68.9 °F 71% 29.87 in 10.0 mi SSE 6.9 mph - N/A   Clear
9:15 PM 79.0 °F - 68.9 °F 71% 29.86 in 10.0 mi South 9.2 mph - N/A   Clear
9:35 PM 78.3 °F - 68.9 °F 73% 29.88 in 10.0 mi South 11.5 mph - N/A   Clear
9:55 PM 78.3 °F - 68.9 °F 73% 29.88 in 10.0 mi South 10.4 mph - N/A   Clear
10:15 PM 79.7 °F - 69.6 °F 71% 29.88 in 10.0 mi South 12.7 mph 20.7 mph N/A   Clear
10:35 PM 80.1 °F 83.2 °F 70.0 °F 71% 29.89 in 10.0 mi SSW 16.1 mph 19.6 mph N/A   Clear
10:55 PM 79.7 °F - 70.2 °F 73% 29.89 in 10.0 mi SSW 13.8 mph 19.6 mph N/A   Clear
11:15 PM 78.3 °F - 67.8 °F 70% 29.93 in 10.0 mi West 19.6 mph 31.1 mph N/A   Mostly Cloudy
11:35 PM 72.1 °F - 66.6 °F 83% 29.94 in 7.0 mi West 12.7 mph 27.6 mph N/A Rain Light Rain
11:55 PM 69.8 °F - 67.1 °F 91% 29.93 in 10.0 mi West 8.1 mph - 0.03 in   Overcast